Weather History for PFYU - January, 2015

Change the Weather History Date:

Thursday, January 8, 2015

  Actual Average Record
Temperature  
Mean Temperature -19 °F -  
Max Temperature -2 °F -11 °F 30 °F (2005)
Min Temperature -36 °F -23 °F -59 °F (1997)
Degree Days  
Heating Degree Days 84    
Moisture  
Dew Point -15 °F    
Average Humidity 69    
Maximum Humidity 84    
Minimum Humidity 47    
Precipitation  
Precipitation 0.00 in - - ()
Sea Level Pressure  
Sea Level Pressure 30.35 in    
Wind  
Wind Speed 8 mph (NE)    
Max Wind Speed 13 mph    
Max Gust Speed 16 mph    
Visibility 10 miles    
Events      
Averages and records for this station are not official NWS values.
T = Trace of Precipitation, MM = Missing Value Source: NWS Daily Summary

Daily Weather History Graph

Daily Weather History Graph

Search for Another Location

Airport or City:

Trip Planner

Search our weather history database for the weather conditions in past years. The results will help you decide how hot, cold, wet, or windy it might be!

Date:

Astronomy

Jan. 08, 2015 Rise Set
Actual Time 11:05 AM AKST 2:30 PM AKST
Civil Twilight 9:32 AM AKST 4:03 PM AKST
Nautical Twilight 8:16 AM AKST 5:19 PM AKST
Astronomical Twilight 7:11 AM AKST 6:24 PM AKST
Moon 8:35 PM AKST (1/8) 10:47 AM AKST (1/8)
Length of Visible Light 6h 31m
Length of Day
3h 25m
Waning Gibbous, 88% of the Moon is Illuminated
Jan 8
Waning Gibbous
Jan 13
Last Quarter
Jan 20
New
Jan 26
First Quarter
Feb 3
Full

Hourly Weather History & Observations

Time (AKST) Temp. Windchill Dew Point Humidity Pressure Visibility Wind Dir Wind Speed Gust Speed Precip Events Conditions
12:16 AM -4.0 °F -22.1 °F -11.2 °F 71% 30.62 in 10.0 mi NE 11.5 mph - N/A   Clear
12:36 AM -4.0 °F -22.1 °F -11.2 °F 71% 30.60 in 10.0 mi NE 11.5 mph - N/A   Clear
12:56 AM -4.0 °F -20.2 °F -11.2 °F 71% 30.60 in 10.0 mi ENE 9.2 mph - N/A   Clear
1:16 AM -4.0 °F -22.1 °F -11.2 °F 71% 30.58 in 10.0 mi NE 11.5 mph - N/A   Clear
1:36 AM -4.0 °F -21.2 °F -9.4 °F 78% 30.58 in 10.0 mi NE 10.4 mph - N/A   Clear
1:56 AM -4.0 °F -22.1 °F -9.4 °F 78% 30.57 in 10.0 mi NE 11.5 mph - N/A   Clear
2:16 AM -4.0 °F -22.1 °F -11.2 °F 71% 30.56 in 10.0 mi NE 11.5 mph - N/A   Clear
2:36 AM -4.0 °F -23.0 °F -11.2 °F 71% 30.54 in 10.0 mi NE 12.7 mph 16.1 mph N/A   Clear
2:56 AM -4.0 °F -21.2 °F -9.4 °F 78% 30.53 in 10.0 mi ENE 10.4 mph - N/A   Clear
3:16 AM -4.0 °F -21.2 °F -11.2 °F 71% 30.53 in 10.0 mi NE 10.4 mph - N/A   Clear
3:36 AM -4.0 °F -20.2 °F -11.2 °F 71% 30.53 in 10.0 mi NE 9.2 mph - N/A   Clear
3:56 AM -4.0 °F -19.0 °F -9.4 °F 78% 30.51 in 10.0 mi ENE 8.1 mph - N/A   Clear
4:16 AM -4.0 °F -20.2 °F -13.0 °F 65% 30.51 in 10.0 mi NE 9.2 mph - N/A   Clear
4:36 AM -4.0 °F -22.1 °F -13.0 °F 65% 30.50 in 10.0 mi NE 11.5 mph - N/A   Clear
4:56 AM -4.0 °F -22.1 °F - N/A% 30.48 in 10.0 mi NE 11.5 mph - N/A   Clear
5:16 AM -4.0 °F -22.1 °F -11.2 °F 71% 30.46 in 10.0 mi NE 11.5 mph - N/A   Clear
5:36 AM -4.0 °F -22.1 °F - N/A% 30.46 in 10.0 mi NE 11.5 mph - N/A   Clear
5:56 AM -4.0 °F -20.2 °F -11.2 °F 71% 30.45 in 10.0 mi ENE 9.2 mph - N/A   Clear
6:16 AM -4.0 °F -21.2 °F -13.0 °F 65% 30.44 in 10.0 mi NE 10.4 mph - N/A   Clear
6:36 AM -4.0 °F -20.2 °F -11.2 °F 71% 30.43 in 10.0 mi ENE 9.2 mph - N/A   Clear
6:56 AM -4.0 °F -20.2 °F -11.2 °F 71% 30.42 in 10.0 mi NE 9.2 mph - N/A   Clear
7:16 AM -5.8 °F -22.4 °F -14.8 °F 65% 30.41 in 10.0 mi NE 9.2 mph - N/A   Clear
7:36 AM -5.8 °F -23.4 °F -13.0 °F 71% 30.41 in 10.0 mi NE 10.4 mph - N/A   Clear
7:56 AM -5.8 °F -21.2 °F -13.0 °F 71% 30.41 in 10.0 mi ENE 8.1 mph - N/A   Clear
8:16 AM -5.8 °F -18.4 °F -14.8 °F 65% 30.40 in 10.0 mi NE 5.8 mph - N/A   Clear
8:36 AM -5.8 °F -18.4 °F -14.8 °F 65% 30.39 in 10.0 mi NE 5.8 mph - N/A   Clear
8:56 AM -5.8 °F -18.4 °F -13.0 °F 71% 30.39 in 10.0 mi ENE 5.8 mph - N/A   Clear
9:56 AM -5.8 °F -16.7 °F -14.8 °F 65% 30.37 in 10.0 mi ENE 4.6 mph - N/A   Clear
10:16 AM -7.6 °F -20.6 °F -16.6 °F 65% 30.37 in 10.0 mi NE 5.8 mph - N/A   Clear
10:36 AM -7.6 °F -18.8 °F -14.8 °F 71% 30.36 in 10.0 mi NE 4.6 mph - N/A   Clear
10:56 AM -7.6 °F -16.5 °F -14.8 °F 71% 30.36 in 10.0 mi ENE 3.5 mph - N/A   Clear
11:16 AM -7.6 °F -16.5 °F -14.8 °F 71% 30.36 in 10.0 mi ENE 3.5 mph - N/A   Clear
11:36 AM -7.6 °F - -16.6 °F 65% 30.35 in 10.0 mi Calm Calm - N/A   Clear
11:56 AM -7.6 °F -20.6 °F -14.8 °F 71% 30.34 in 10.0 mi NE 5.8 mph - N/A   Clear
12:16 PM -7.6 °F -20.6 °F -16.6 °F 65% 30.34 in 10.0 mi NE 5.8 mph - N/A   Clear
12:56 PM -7.6 °F -16.5 °F -14.8 °F 71% 30.32 in 10.0 mi ENE 3.5 mph - N/A   Clear
1:36 PM -7.6 °F -16.5 °F -14.8 °F 71% 30.31 in 10.0 mi NE 3.5 mph - N/A   Clear
1:56 PM -7.6 °F -18.8 °F -16.6 °F 65% 30.30 in 10.0 mi NE 4.6 mph - N/A   Clear
2:16 PM -7.6 °F -16.5 °F -14.8 °F 71% 30.29 in 10.0 mi NE 3.5 mph - N/A   Clear
2:36 PM -7.6 °F -16.5 °F -16.6 °F 65% 30.28 in 10.0 mi NE 3.5 mph - N/A   Clear
2:56 PM -7.6 °F -18.8 °F -13.0 °F 77% 30.27 in 10.0 mi ENE 4.6 mph - N/A   Clear
3:36 PM -7.6 °F - -16.6 °F 65% 30.26 in 10.0 mi Calm Calm - N/A   Clear
3:56 PM -9.4 °F - -16.6 °F 71% 30.25 in 10.0 mi Calm Calm - N/A   Clear
4:16 PM -7.6 °F -18.8 °F -16.6 °F 65% 30.25 in 10.0 mi NE 4.6 mph - N/A   Clear
4:36 PM -7.6 °F -16.5 °F -16.6 °F 65% 30.24 in 10.0 mi NE 3.5 mph - N/A   Clear
4:56 PM -9.4 °F - -16.6 °F 71% 30.24 in 10.0 mi Calm Calm - N/A   Clear
5:16 PM -9.4 °F - -16.6 °F 71% 30.23 in 10.0 mi Calm Calm - N/A   Clear
5:36 PM -9.4 °F -18.6 °F -18.4 °F 65% 30.23 in 10.0 mi NE 3.5 mph - N/A   Clear
5:56 PM -13.0 °F -22.7 °F -25.6 °F 53% 30.22 in 10.0 mi NNE 3.5 mph - N/A   Clear
6:16 PM -9.4 °F -18.6 °F -13.0 °F 84% 30.21 in 10.0 mi NE 3.5 mph - N/A   Clear
6:36 PM -9.4 °F -18.6 °F -18.4 °F 65% 30.21 in 10.0 mi NE 3.5 mph - N/A   Clear
6:56 PM -9.4 °F -18.6 °F -16.6 °F 71% 30.21 in 10.0 mi NE 3.5 mph - N/A   Clear
7:16 PM -9.4 °F -20.9 °F -18.4 °F 65% 30.20 in 10.0 mi NNE 4.6 mph - N/A   Clear
7:36 PM -9.4 °F -18.6 °F -16.6 °F 71% 30.20 in 10.0 mi NE 3.5 mph - N/A   Clear
7:56 PM -9.4 °F -18.6 °F -16.6 °F 71% 30.19 in 10.0 mi NE 3.5 mph - N/A   Clear
8:16 PM -9.4 °F - -16.6 °F 71% 30.18 in 10.0 mi Calm Calm - N/A   Clear
8:36 PM -11.2 °F -20.6 °F -16.6 °F 77% 30.19 in 10.0 mi NE 3.5 mph - N/A   Clear
8:56 PM -9.4 °F -20.9 °F -18.4 °F 65% 30.17 in 10.0 mi NE 4.6 mph - N/A   Clear
9:16 PM -9.4 °F - -18.4 °F 65% 30.18 in 10.0 mi Calm Calm - N/A   Clear
9:36 PM -9.4 °F - -18.4 °F 65% 30.18 in 10.0 mi Calm Calm - N/A   Clear
9:56 PM -11.2 °F - -18.4 °F 70% 30.17 in 10.0 mi Calm Calm - N/A   Clear
10:16 PM -11.2 °F - -20.2 °F 64% 30.18 in 10.0 mi Calm Calm - N/A   Clear
10:36 PM -11.2 °F - -16.6 °F 77% 30.17 in 10.0 mi Calm Calm - N/A   Clear
10:56 PM -11.2 °F -20.6 °F -20.2 °F 64% 30.16 in 10.0 mi NE 3.5 mph - N/A   Clear
11:16 PM -11.2 °F - -18.4 °F 70% 30.16 in 10.0 mi Calm Calm - N/A   Clear
11:36 PM -11.2 °F - -20.2 °F 64% 30.16 in 10.0 mi Calm Calm - N/A   Clear
11:56 PM -13.0 °F - -22.0 °F 64% 30.15 in 4.0 mi Calm Calm - N/A   Clear